Time,TemperatureF,DewpointF,PressureIn,WindDirection,WindDirectionDegrees,WindSpeedMPH,WindSpeedGustMPH,Humidity,HourlyPrecipIn,Conditions,Clouds,dailyrainin,SoftwareType,DateUTC
2013-01-18 00:03:00,16.4,10.4,30.35,SE,135,3.5,3.5,77,0.00,CLR,,0.00,WeatherDisplay:10.37,2013-01-18 06:03:00,
2013-01-18 00:08:00,16.5,10.8,30.35,SE,134,0.0,0.0,78,0.00,CLR,,0.00,WeatherDisplay:10.37,2013-01-18 06:08:00,
2013-01-18 00:13:00,16.5,10.8,30.36,SE,136,0.0,0.0,78,0.00,CLR,,0.00,WeatherDisplay:10.37,2013-01-18 06:13:00,
2013-01-18 00:18:00,16.5,10.8,30.35,SSE,153,3.5,3.5,78,0.00,CLR,,0.00,WeatherDisplay:10.37,2013-01-18 06:18:00,
2013-01-18 00:23:00,16.6,10.9,30.34,SSE,153,1.1,0.0,78,0.00,CLR,,0.00,WeatherDisplay:10.37,2013-01-18 06:23:00,
2013-01-18 00:28:00,16.5,10.8,30.34,SE,127,3.5,3.5,78,0.00,CLR,,0.00,WeatherDisplay:10.37,2013-01-18 06:28:00,
2013-01-18 00:33:00,16.4,11.0,30.33,South,172,3.5,3.5,79,0.00,CLR,,0.00,WeatherDisplay:10.37,2013-01-18 06:33:00,
2013-01-18 00:38:00,16.4,11.3,30.33,SE,137,2.3,0.0,80,0.00,CLR,,0.00,WeatherDisplay:10.37,2013-01-18 06:38:00,
2013-01-18 00:43:00,16.4,11.3,30.32,SE,130,4.6,4.6,80,0.00,CLR,,0.00,WeatherDisplay:10.37,2013-01-18 06:43:00,
2013-01-18 00:48:00,16.4,11.6,30.32,ESE,120,5.0,5.0,81,0.00,CLR,,0.00,WeatherDisplay:10.37,2013-01-18 06:48:00,
2013-01-18 00:53:00,16.4,11.6,30.32,ESE,105,3.5,3.5,81,0.00,CLR,,0.00,WeatherDisplay:10.37,2013-01-18 06:53:00,
2013-01-18 00:58:00,16.4,11.6,30.32,SE,126,0.0,2.0,81,0.00,CLR,,0.00,WeatherDisplay:10.37,2013-01-18 06:58:00,
2013-01-18 01:03:00,16.4,11.9,30.33,ESE,122,3.5,3.5,82,0.00,CLR,,0.00,WeatherDisplay:10.37,2013-01-18 07:03:00,
2013-01-18 01:08:00,16.4,11.9,30.32,ESE,110,3.5,3.5,82,0.00,CLR,,0.00,WeatherDisplay:10.37,2013-01-18 07:08:00,
2013-01-18 01:13:00,16.5,12.0,30.31,SE,134,6.9,6.9,82,0.00,CLR,,0.00,WeatherDisplay:10.37,2013-01-18 07:13:00,
2013-01-18 01:18:00,16.5,12.0,30.31,ESE,122,3.5,3.5,82,0.00,CLR,,0.00,WeatherDisplay:10.37,2013-01-18 07:18:00,
2013-01-18 01:24:00,16.6,12.1,30.31,East,101,5.8,5.8,82,0.00,CLR,,0.00,WeatherDisplay:10.37,2013-01-18 07:24:00,
2013-01-18 01:29:00,16.6,12.1,30.30,ESE,106,3.5,3.5,82,0.00,CLR,,0.00,WeatherDisplay:10.37,2013-01-18 07:29:00,
2013-01-18 01:34:00,16.7,12.2,30.30,ESE,121,3.5,3.5,82,0.00,CLR,,0.00,WeatherDisplay:10.37,2013-01-18 07:34:00,
2013-01-18 01:39:00,16.7,12.2,30.29,ESE,114,5.8,5.8,82,0.00,CLR,,0.00,WeatherDisplay:10.37,2013-01-18 07:39:00,
2013-01-18 01:44:00,16.7,12.2,30.28,SSE,157,3.5,3.5,82,0.00,CLR,,0.00,WeatherDisplay:10.37,2013-01-18 07:44:00,
2013-01-18 01:49:00,16.8,12.3,30.28,ESE,115,4.6,4.6,82,0.00,CLR,,0.00,WeatherDisplay:10.37,2013-01-18 07:49:00,
2013-01-18 01:54:00,16.8,12.3,30.27,SSE,152,4.6,4.6,82,0.00,CLR,,0.00,WeatherDisplay:10.37,2013-01-18 07:54:00,
2013-01-18 01:59:00,16.9,12.4,30.27,SE,130,11.5,11.5,82,0.00,CLR,,0.00,WeatherDisplay:10.37,2013-01-18 07:59:00,
2013-01-18 02:04:00,17.0,12.2,30.27,East,98,5.8,5.8,81,0.00,CLR,,0.00,WeatherDisplay:10.37,2013-01-18 08:04:00,
2013-01-18 02:09:00,17.1,12.3,30.27,ESE,108,10.4,10.4,81,0.00,CLR,,0.00,WeatherDisplay:10.37,2013-01-18 08:09:00,
2013-01-18 02:14:00,17.2,12.4,30.27,SE,144,11.5,11.5,81,0.00,CLR,,0.00,WeatherDisplay:10.37,2013-01-18 08:14:00,
2013-01-18 02:19:00,17.3,12.5,30.27,SSE,153,6.9,6.9,81,0.00,CLR,,0.00,WeatherDisplay:10.37,2013-01-18 08:19:00,
2013-01-18 02:24:00,17.4,12.6,30.26,ESE,117,7.0,7.0,81,0.00,CLR,,0.00,WeatherDisplay:10.37,2013-01-18 08:24:00,
2013-01-18 02:29:00,17.5,12.4,30.26,ESE,103,5.8,5.8,80,0.00,CLR,,0.00,WeatherDisplay:10.37,2013-01-18 08:29:00,
2013-01-18 02:34:00,17.5,12.4,30.25,SSE,151,9.2,9.2,80,0.00,CLR,,0.00,WeatherDisplay:10.37,2013-01-18 08:34:00,
2013-01-18 02:39:00,17.6,12.8,30.25,SE,126,5.8,5.8,81,0.00,CLR,,0.00,WeatherDisplay:10.37,2013-01-18 08:39:00,
2013-01-18 02:44:00,17.7,12.9,30.24,ESE,116,6.9,6.9,81,0.00,CLR,,0.00,WeatherDisplay:10.37,2013-01-18 08:44:00,
2013-01-18 02:49:00,17.7,12.9,30.24,ESE,110,4.6,4.6,81,0.00,CLR,,0.00,WeatherDisplay:10.37,2013-01-18 08:49:00,
2013-01-18 02:54:00,17.9,13.1,30.23,East,95,5.8,5.8,81,0.00,CLR,,0.00,WeatherDisplay:10.37,2013-01-18 08:54:00,
2013-01-18 02:59:00,18.0,12.9,30.23,East,85,5.8,5.8,80,0.00,CLR,,0.00,WeatherDisplay:10.37,2013-01-18 08:59:00,
2013-01-18 03:04:00,18.1,13.0,30.22,ESE,118,11.5,11.5,80,0.00,CLR,,0.00,WeatherDisplay:10.37,2013-01-18 09:04:00,
2013-01-18 03:09:00,18.2,13.1,30.21,SSE,150,9.2,9.2,80,0.00,CLR,,0.00,WeatherDisplay:10.37,2013-01-18 09:09:00,
2013-01-18 03:14:00,18.3,13.2,30.21,SE,131,5.8,5.8,80,0.00,CLR,,0.00,WeatherDisplay:10.37,2013-01-18 09:14:00,
2013-01-18 03:19:00,18.4,13.3,30.20,ESE,115,3.5,3.5,80,0.00,CLR,,0.00,WeatherDisplay:10.37,2013-01-18 09:19:00,
2013-01-18 03:24:00,18.6,13.5,30.20,ESE,122,8.1,8.1,80,0.00,CLR,,0.00,WeatherDisplay:10.37,2013-01-18 09:24:00,
2013-01-18 03:29:00,18.7,13.6,30.19,SE,132,4.6,4.6,80,0.00,CLR,,0.00,WeatherDisplay:10.37,2013-01-18 09:29:00,
2013-01-18 03:34:00,18.8,13.7,30.19,SE,134,6.9,6.9,80,0.00,CLR,,0.00,WeatherDisplay:10.37,2013-01-18 09:34:00,
2013-01-18 03:39:00,18.9,13.5,30.19,SSE,153,4.6,4.6,79,0.00,CLR,,0.00,WeatherDisplay:10.37,2013-01-18 09:39:00,
2013-01-18 03:44:00,18.9,13.7,30.19,East,98,10.4,10.4,80,0.00,CLR,,0.00,WeatherDisplay:10.37,2013-01-18 09:44:00,
2013-01-18 03:49:00,19.0,13.8,30.19,East,96,6.9,6.9,80,0.00,CLR,,0.00,WeatherDisplay:10.37,2013-01-18 09:49:00,
2013-01-18 03:54:00,19.1,13.9,30.18,SSE,154,3.5,3.5,80,0.00,CLR,,0.00,WeatherDisplay:10.37,2013-01-18 09:54:00,
2013-01-18 03:59:00,19.2,14.0,30.17,ESE,103,10.0,10.0,80,0.00,CLR,,0.00,WeatherDisplay:10.37,2013-01-18 09:59:00,
2013-01-18 04:04:00,19.3,14.1,30.16,SSE,152,11.5,11.5,80,0.00,CLR,,0.00,WeatherDisplay:10.37,2013-01-18 10:04:00,
2013-01-18 04:09:00,19.4,13.9,30.15,SE,128,6.9,6.9,79,0.00,CLR,,0.00,WeatherDisplay:10.37,2013-01-18 10:09:00,
2013-01-18 04:14:00,19.7,14.2,30.15,SE,125,16.1,16.1,79,0.00,CLR,,0.00,WeatherDisplay:10.37,2013-01-18 10:14:00,
2013-01-18 04:19:00,19.7,14.0,30.15,ESE,115,11.5,11.5,78,0.00,CLR,,0.00,WeatherDisplay:10.37,2013-01-18 10:19:00,
2013-01-18 04:24:00,19.9,14.1,30.14,ESE,122,6.9,6.9,78,0.00,CLR,,0.00,WeatherDisplay:10.37,2013-01-18 10:24:00,
2013-01-18 04:29:00,20.0,14.2,30.14,SE,125,11.5,11.5,78,0.00,CLR,,0.00,WeatherDisplay:10.37,2013-01-18 10:29:00,
2013-01-18 04:34:00,20.0,14.2,30.13,ESE,121,12.7,12.7,78,0.00,CLR,,0.00,WeatherDisplay:10.37,2013-01-18 10:34:00,
2013-01-18 04:39:00,20.2,14.4,30.13,SE,145,6.9,6.9,78,0.00,CLR,,0.00,WeatherDisplay:10.37,2013-01-18 10:39:00,
2013-01-18 04:44:00,20.3,14.5,30.12,SE,141,9.2,9.2,78,0.00,CLR,,0.00,WeatherDisplay:10.37,2013-01-18 10:44:00,
2013-01-18 04:49:00,20.5,14.7,30.12,SSE,158,4.6,4.6,78,0.00,CLR,,0.00,WeatherDisplay:10.37,2013-01-18 10:49:00,
2013-01-18 04:54:00,20.6,14.8,30.12,SE,142,3.5,4.0,78,0.00,CLR,,0.00,WeatherDisplay:10.37,2013-01-18 10:54:00,
2013-01-18 04:59:00,20.9,15.1,30.12,SSE,162,15.0,15.0,78,0.00,CLR,,0.00,WeatherDisplay:10.37,2013-01-18 10:59:00,
2013-01-18 05:04:00,21.1,15.0,30.11,SE,132,4.6,4.6,77,0.00,CLR,,0.00,WeatherDisplay:10.37,2013-01-18 11:04:00,
2013-01-18 05:09:00,21.2,15.1,30.11,ESE,122,12.0,12.0,77,0.00,CLR,,0.00,WeatherDisplay:10.37,2013-01-18 11:09:00,
2013-01-18 05:14:00,21.3,15.2,30.10,South,190,5.8,5.8,77,0.00,CLR,,0.00,WeatherDisplay:10.37,2013-01-18 11:14:00,
2013-01-18 05:19:00,21.3,15.2,30.10,East,101,4.6,4.6,77,0.00,CLR,,0.00,WeatherDisplay:10.37,2013-01-18 11:19:00,
2013-01-18 05:24:00,21.3,15.2,30.09,SE,145,11.5,11.5,77,0.00,CLR,,0.00,WeatherDisplay:10.37,2013-01-18 11:24:00,
2013-01-18 05:29:00,21.6,15.5,30.08,SE,146,5.8,5.8,77,0.00,CLR,,0.00,WeatherDisplay:10.37,2013-01-18 11:29:00,
2013-01-18 05:34:00,21.8,15.7,30.07,SE,140,12.7,12.7,77,0.00,CLR,,0.00,WeatherDisplay:10.37,2013-01-18 11:34:00,
2013-01-18 05:39:00,22.0,15.9,30.07,South,182,10.4,10.4,77,0.00,CLR,,0.00,WeatherDisplay:10.37,2013-01-18 11:39:00,
2013-01-18 05:44:00,22.2,16.4,30.06,SE,142,3.5,3.5,78,0.00,CLR,,0.00,WeatherDisplay:10.37,2013-01-18 11:44:00,
2013-01-18 05:49:00,22.2,16.4,30.06,SE,143,4.6,5.6,78,0.00,CLR,,0.00,WeatherDisplay:10.37,2013-01-18 11:49:00,
2013-01-18 05:54:00,22.3,16.5,30.05,ESE,115,11.5,11.5,78,0.00,CLR,,0.00,WeatherDisplay:10.37,2013-01-18 11:54:00,
2013-01-18 05:59:00,22.4,16.6,30.05,SE,126,3.5,0.0,78,0.00,CLR,,0.00,WeatherDisplay:10.37,2013-01-18 11:59:00,
2013-01-18 06:04:00,22.6,17.1,30.05,South,176,11.5,11.5,79,0.00,CLR,,0.00,WeatherDisplay:10.37,2013-01-18 12:04:00,
2013-01-18 06:09:00,22.7,17.2,30.04,South,171,4.6,4.6,79,0.00,CLR,,0.00,WeatherDisplay:10.37,2013-01-18 12:09:00,
2013-01-18 06:14:00,22.8,17.6,30.04,ESE,118,6.9,6.9,80,0.00,CLR,,0.00,WeatherDisplay:10.37,2013-01-18 12:14:00,
2013-01-18 06:19:00,23.1,17.8,30.04,SE,126,4.6,4.6,80,0.00,CLR,,0.00,WeatherDisplay:10.37,2013-01-18 12:19:00,
2013-01-18 06:24:00,23.4,18.4,30.03,South,176,9.2,9.2,81,0.00,CLR,,0.00,WeatherDisplay:10.37,2013-01-18 12:24:00,
2013-01-18 06:29:00,23.8,18.8,30.03,SSE,165,6.9,6.9,81,0.00,CLR,,0.00,WeatherDisplay:10.37,2013-01-18 12:29:00,
2013-01-18 06:34:00,24.1,19.1,30.02,SSE,148,10.4,10.4,81,0.00,CLR,,0.00,WeatherDisplay:10.37,2013-01-18 12:34:00,
2013-01-18 06:39:00,24.5,19.5,30.01,SSE,148,11.5,11.5,81,0.00,CLR,,0.00,WeatherDisplay:10.37,2013-01-18 12:39:00,
2013-01-18 06:44:00,24.7,19.7,30.01,South,180,4.6,4.6,81,0.00,CLR,,0.00,WeatherDisplay:10.37,2013-01-18 12:44:00,
2013-01-18 06:49:00,25.1,20.4,30.01,SE,134,15.0,15.0,82,0.00,CLR,,0.00,WeatherDisplay:10.37,2013-01-18 12:49:00,
2013-01-18 06:54:00,25.4,20.7,30.00,SSE,161,7.0,7.0,82,0.00,CLR,,0.00,WeatherDisplay:10.37,2013-01-18 12:54:00,
2013-01-18 06:59:00,25.7,21.0,29.99,South,186,10.4,10.4,82,0.00,CLR,,0.00,WeatherDisplay:10.37,2013-01-18 12:59:00,
2013-01-18 07:04:00,26.0,21.3,29.99,South,178,13.0,13.0,82,0.00,CLR,,0.00,WeatherDisplay:10.37,2013-01-18 13:04:00,
2013-01-18 07:10:00,26.2,21.5,29.98,SSW,193,8.1,8.1,82,0.00,CLR,,0.00,WeatherDisplay:10.37,2013-01-18 13:10:00,
2013-01-18 07:15:00,26.4,21.7,29.97,SSE,164,13.8,13.8,82,0.00,CLR,,0.00,WeatherDisplay:10.37,2013-01-18 13:15:00,
2013-01-18 07:20:00,26.6,21.8,29.97,South,182,9.2,9.2,82,0.00,CLR,,0.00,WeatherDisplay:10.37,2013-01-18 13:20:00,
2013-01-18 07:25:00,27.0,22.2,29.97,SSW,192,6.9,6.9,82,0.00,CLR,,0.00,WeatherDisplay:10.37,2013-01-18 13:25:00,
2013-01-18 07:30:00,27.3,22.8,29.96,SSE,152,12.0,12.0,83,0.00,CLR,,0.00,WeatherDisplay:10.37,2013-01-18 13:30:00,
2013-01-18 07:35:00,27.6,22.8,29.95,SSE,147,3.5,3.7,82,0.00,CLR,,0.00,WeatherDisplay:10.37,2013-01-18 13:35:00,
2013-01-18 07:40:00,27.8,23.0,29.95,SSE,161,12.7,12.7,82,0.00,CLR,,0.00,WeatherDisplay:10.37,2013-01-18 13:40:00,
2013-01-18 07:45:00,28.0,23.2,29.95,South,180,17.3,17.3,82,0.00,CLR,,0.00,WeatherDisplay:10.37,2013-01-18 13:45:00,
2013-01-18 07:50:00,28.3,23.5,29.95,SE,142,10.4,10.4,82,0.00,CLR,,0.00,WeatherDisplay:10.37,2013-01-18 13:50:00,
2013-01-18 07:55:00,28.4,23.6,29.95,SE,134,9.2,9.2,82,0.00,CLR,,0.00,WeatherDisplay:10.37,2013-01-18 13:55:00,
2013-01-18 08:00:00,28.6,23.8,29.95,SE,136,5.8,5.8,82,0.00,CLR,,0.00,WeatherDisplay:10.37,2013-01-18 14:00:00,
2013-01-18 08:05:00,28.7,23.9,29.95,SSE,168,3.5,3.5,82,0.00,CLR,,0.00,WeatherDisplay:10.37,2013-01-18 14:05:00,
2013-01-18 08:10:00,28.8,24.0,29.95,SSE,167,3.5,3.5,82,0.00,CLR,,0.00,WeatherDisplay:10.37,2013-01-18 14:10:00,
2013-01-18 08:15:00,28.9,24.1,29.94,South,189,10.4,10.4,82,0.00,CLR,,0.00,WeatherDisplay:10.37,2013-01-18 14:15:00,
2013-01-18 08:20:00,29.0,24.2,29.94,SSW,205,6.0,6.0,82,0.00,CLR,,0.00,WeatherDisplay:10.37,2013-01-18 14:20:00,
2013-01-18 08:25:00,29.3,24.5,29.94,South,170,13.0,13.0,82,0.00,CLR,,0.00,WeatherDisplay:10.37,2013-01-18 14:25:00,
2013-01-18 08:30:00,29.6,24.8,29.94,SW,226,15.0,15.0,82,0.00,CLR,,0.00,WeatherDisplay:10.37,2013-01-18 14:30:00,
2013-01-18 08:35:00,29.8,25.0,29.93,SW,229,11.5,11.5,82,0.00,CLR,,0.00,WeatherDisplay:10.37,2013-01-18 14:35:00,
2013-01-18 08:40:00,30.1,25.3,29.93,South,172,12.7,12.7,82,0.00,CLR,,0.00,WeatherDisplay:10.37,2013-01-18 14:40:00,
2013-01-18 08:45:00,30.4,25.6,29.93,SSW,200,11.5,11.5,82,0.00,CLR,,0.00,WeatherDisplay:10.37,2013-01-18 14:45:00,
2013-01-18 08:50:00,30.7,25.9,29.92,West,266,5.8,5.8,82,0.00,CLR,,0.00,WeatherDisplay:10.37,2013-01-18 14:50:00,
2013-01-18 08:55:00,31.0,26.1,29.92,South,179,15.0,15.0,82,0.00,CLR,,0.00,WeatherDisplay:10.37,2013-01-18 14:55:00,
2013-01-18 09:00:00,31.5,26.3,29.91,SSW,207,17.3,17.3,81,0.00,CLR,,0.00,WeatherDisplay:10.37,2013-01-18 15:00:00,
2013-01-18 09:05:00,31.8,26.6,29.91,SSW,207,6.9,6.9,81,0.00,CLR,,0.00,WeatherDisplay:10.37,2013-01-18 15:05:00,
2013-01-18 09:10:00,32.1,26.6,29.91,SW,214,13.8,13.8,80,0.00,CLR,,0.00,WeatherDisplay:10.37,2013-01-18 15:10:00,
2013-01-18 09:15:00,32.2,26.4,29.91,SW,223,10.4,10.4,79,0.00,CLR,,0.00,WeatherDisplay:10.37,2013-01-18 15:15:00,
2013-01-18 09:20:00,32.6,26.8,29.91,SW,229,11.5,11.5,79,0.00,CLR,,0.00,WeatherDisplay:10.37,2013-01-18 15:20:00,
2013-01-18 09:25:00,33.0,26.9,29.90,SSW,194,9.2,9.2,78,0.00,CLR,,0.00,WeatherDisplay:10.37,2013-01-18 15:25:00,
2013-01-18 09:30:00,33.4,27.0,29.89,SSW,196,12.7,12.7,77,0.00,CLR,,0.00,WeatherDisplay:10.37,2013-01-18 15:30:00,
2013-01-18 09:35:00,33.7,27.3,29.90,SSE,164,5.8,5.8,77,0.00,CLR,,0.00,WeatherDisplay:10.37,2013-01-18 15:35:00,
2013-01-18 09:40:00,34.1,27.3,29.89,SSW,209,9.2,9.2,76,0.00,CLR,,0.00,WeatherDisplay:10.37,2013-01-18 15:40:00,
2013-01-18 09:45:00,34.4,27.6,29.90,WSW,244,10.4,10.4,76,0.00,CLR,,0.00,WeatherDisplay:10.37,2013-01-18 15:45:00,
2013-01-18 09:50:00,34.5,27.4,29.90,South,189,5.8,5.8,75,0.00,CLR,,0.00,WeatherDisplay:10.37,2013-01-18 15:50:00,
2013-01-18 09:55:00,34.7,27.6,29.90,SW,223,12.7,12.7,75,0.00,CLR,,0.00,WeatherDisplay:10.37,2013-01-18 15:55:00,
2013-01-18 10:00:00,34.7,27.6,29.90,SW,232,11.5,11.5,75,0.00,CLR,,0.00,WeatherDisplay:10.37,2013-01-18 16:00:00,
2013-01-18 10:05:00,34.5,27.4,29.90,SSW,202,10.4,10.4,75,0.00,CLR,,0.00,WeatherDisplay:10.37,2013-01-18 16:05:00,
2013-01-18 10:10:00,34.5,27.4,29.89,SW,233,11.5,11.5,75,0.00,CLR,,0.00,WeatherDisplay:10.37,2013-01-18 16:10:00,
2013-01-18 10:15:00,35.2,28.1,29.89,SW,223,11.0,11.0,75,0.00,CLR,,0.00,WeatherDisplay:10.37,2013-01-18 16:15:00,
2013-01-18 10:20:00,35.9,28.1,29.89,SW,229,11.5,11.5,73,0.00,CLR,,0.00,WeatherDisplay:10.37,2013-01-18 16:20:00,
2013-01-18 10:25:00,36.3,28.1,29.89,SW,232,11.5,11.5,72,0.00,CLR,,0.00,WeatherDisplay:10.37,2013-01-18 16:25:00,
2013-01-18 10:30:00,36.6,28.4,29.88,SSE,165,13.8,13.8,72,0.00,CLR,,0.00,WeatherDisplay:10.37,2013-01-18 16:30:00,
2013-01-18 10:35:00,36.9,28.4,29.89,SSW,198,10.4,10.4,71,0.00,CLR,,0.00,WeatherDisplay:10.37,2013-01-18 16:35:00,
2013-01-18 10:40:00,37.1,28.2,29.88,South,178,19.6,19.6,70,0.00,CLR,,0.00,WeatherDisplay:10.37,2013-01-18 16:40:00,
2013-01-18 10:45:00,37.3,28.4,29.88,SSW,204,18.4,18.4,70,0.00,CLR,,0.00,WeatherDisplay:10.37,2013-01-18 16:45:00,
2013-01-18 10:50:00,37.7,28.8,29.88,SE,136,4.6,4.6,70,0.00,CLR,,0.00,WeatherDisplay:10.37,2013-01-18 16:50:00,
2013-01-18 10:55:00,38.0,28.7,29.87,WSW,238,9.2,9.2,69,0.00,CLR,,0.00,WeatherDisplay:10.37,2013-01-18 16:55:00,
2013-01-18 11:00:00,37.7,28.4,29.87,SSW,211,19.6,19.6,69,0.00,CLR,,0.00,WeatherDisplay:10.37,2013-01-18 17:00:00,
2013-01-18 11:05:00,37.8,28.5,29.87,West,270,15.0,15.0,69,0.00,CLR,,0.00,WeatherDisplay:10.37,2013-01-18 17:05:00,
2013-01-18 11:10:00,38.0,29.1,29.87,WSW,254,5.8,5.8,70,0.00,CLR,,0.00,WeatherDisplay:10.37,2013-01-18 17:10:00,
2013-01-18 11:15:00,38.0,28.7,29.86,SSW,199,12.7,12.7,69,0.00,CLR,,0.00,WeatherDisplay:10.37,2013-01-18 17:15:00,
2013-01-18 11:20:00,38.2,28.9,29.85,SSW,209,11.5,11.5,69,0.00,CLR,,0.00,WeatherDisplay:10.37,2013-01-18 17:20:00,
2013-01-18 11:25:00,38.5,28.9,29.85,SW,218,13.8,13.8,68,0.00,CLR,,0.00,WeatherDisplay:10.37,2013-01-18 17:25:00,
2013-01-18 11:30:00,38.4,28.8,29.84,SSW,206,5.8,5.8,68,0.00,CLR,,0.00,WeatherDisplay:10.37,2013-01-18 17:30:00,
2013-01-18 11:35:00,38.7,29.0,29.84,SW,221,12.7,12.7,68,0.00,CLR,,0.00,WeatherDisplay:10.37,2013-01-18 17:35:00,
2013-01-18 11:40:00,38.9,29.2,29.83,SSW,209,11.5,11.5,68,0.00,CLR,,0.00,WeatherDisplay:10.37,2013-01-18 17:40:00,
2013-01-18 11:45:00,39.2,29.2,29.83,SW,229,15.0,15.0,67,0.00,CLR,,0.00,WeatherDisplay:10.37,2013-01-18 17:45:00,
2013-01-18 11:50:00,39.2,29.5,29.82,SW,228,7.0,7.0,68,0.00,CLR,,0.00,WeatherDisplay:10.37,2013-01-18 17:50:00,
2013-01-18 11:55:00,39.4,29.3,29.83,WSW,245,12.7,12.7,67,0.00,CLR,,0.00,WeatherDisplay:10.37,2013-01-18 17:55:00,
2013-01-18 12:00:00,39.5,29.4,29.82,SW,219,11.5,11.5,67,0.00,CLR,,0.00,WeatherDisplay:10.37,2013-01-18 18:00:00,
2013-01-18 12:05:00,39.5,29.8,29.82,WSW,242,9.2,9.2,68,0.00,CLR,,0.00,WeatherDisplay:10.37,2013-01-18 18:05:00,
2013-01-18 12:10:00,39.6,29.5,29.82,WSW,241,12.7,12.7,67,0.00,CLR,,0.00,WeatherDisplay:10.37,2013-01-18 18:10:00,
2013-01-18 12:15:00,39.7,29.6,29.81,SW,236,9.2,9.2,67,0.00,CLR,,0.00,WeatherDisplay:10.37,2013-01-18 18:15:00,
2013-01-18 12:20:00,39.9,29.8,29.81,WSW,244,16.1,16.1,67,0.00,CLR,,0.00,WeatherDisplay:10.37,2013-01-18 18:20:00,
2013-01-18 12:26:00,40.2,30.1,29.81,West,267,11.5,11.5,67,0.00,CLR,,0.00,WeatherDisplay:10.37,2013-01-18 18:26:00,
2013-01-18 12:31:00,40.4,29.9,29.80,SW,232,10.4,10.4,66,0.00,CLR,,0.00,WeatherDisplay:10.37,2013-01-18 18:31:00,
2013-01-18 12:36:00,40.4,29.9,29.80,SW,219,11.5,11.5,66,0.00,CLR,,0.00,WeatherDisplay:10.37,2013-01-18 18:36:00,
2013-01-18 12:41:00,40.4,29.9,29.80,SSW,207,11.0,11.0,66,0.00,CLR,,0.00,WeatherDisplay:10.37,2013-01-18 18:41:00,
2013-01-18 12:46:00,40.3,29.8,29.80,WSW,252,18.4,18.4,66,0.00,CLR,,0.00,WeatherDisplay:10.37,2013-01-18 18:46:00,
2013-01-18 12:51:00,40.5,30.4,29.80,WSW,242,5.8,5.8,67,0.00,CLR,,0.00,WeatherDisplay:10.37,2013-01-18 18:51:00,
2013-01-18 12:56:00,40.2,30.1,29.79,WSW,237,11.5,11.5,67,0.00,CLR,,0.00,WeatherDisplay:10.37,2013-01-18 18:56:00,
2013-01-18 13:01:00,40.4,30.3,29.79,SW,232,4.6,4.6,67,0.00,CLR,,0.00,WeatherDisplay:10.37,2013-01-18 19:01:00,
2013-01-18 13:06:00,40.7,30.6,29.79,SSW,211,11.5,11.5,67,0.00,CLR,,0.00,WeatherDisplay:10.37,2013-01-18 19:06:00,
2013-01-18 13:11:00,41.1,31.0,29.79,SW,232,3.5,3.5,67,0.00,CLR,,0.00,WeatherDisplay:10.37,2013-01-18 19:11:00,
2013-01-18 13:16:00,41.2,30.7,29.79,West,259,18.4,18.4,66,0.00,CLR,,0.00,WeatherDisplay:10.37,2013-01-18 19:16:00,
2013-01-18 13:21:00,40.9,30.8,29.79,SSW,199,3.5,3.5,67,0.00,CLR,,0.00,WeatherDisplay:10.37,2013-01-18 19:21:00,
2013-01-18 13:26:00,41.1,30.6,29.79,SW,236,11.5,11.5,66,0.00,CLR,,0.00,WeatherDisplay:10.37,2013-01-18 19:26:00,
2013-01-18 13:31:00,41.3,30.8,29.79,WNW,283,16.1,16.1,66,0.00,CLR,,0.00,WeatherDisplay:10.37,2013-01-18 19:31:00,
2013-01-18 13:36:00,41.1,30.6,29.79,West,272,10.4,10.4,66,0.00,CLR,,0.00,WeatherDisplay:10.37,2013-01-18 19:36:00,
2013-01-18 13:41:00,41.1,30.6,29.78,SW,230,13.8,13.8,66,0.00,CLR,,0.00,WeatherDisplay:10.37,2013-01-18 19:41:00,
2013-01-18 13:46:00,40.9,30.8,29.78,West,277,9.2,9.2,67,0.00,CLR,,0.00,WeatherDisplay:10.37,2013-01-18 19:46:00,
2013-01-18 13:51:00,40.9,30.8,29.78,West,267,11.5,11.5,67,0.00,CLR,,0.00,WeatherDisplay:10.37,2013-01-18 19:51:00,
2013-01-18 13:56:00,40.9,30.8,29.78,WSW,240,11.5,11.5,67,0.00,CLR,,0.00,WeatherDisplay:10.37,2013-01-18 19:56:00,
2013-01-18 14:01:00,40.9,30.8,29.78,West,272,12.7,12.7,67,0.00,CLR,,0.00,WeatherDisplay:10.37,2013-01-18 20:01:00,
2013-01-18 14:06:00,41.0,30.9,29.78,SW,221,8.1,8.1,67,0.00,CLR,,0.00,WeatherDisplay:10.37,2013-01-18 20:06:00,
2013-01-18 14:11:00,41.0,30.9,29.78,SW,234,9.2,9.2,67,0.00,CLR,,0.00,WeatherDisplay:10.37,2013-01-18 20:11:00,
2013-01-18 14:16:00,41.0,30.5,29.78,WNW,296,10.4,10.4,66,0.00,CLR,,0.00,WeatherDisplay:10.37,2013-01-18 20:16:00,
2013-01-18 14:21:00,41.0,32.0,29.79,WSW,244,10.4,10.4,70,0.00,CLR,,0.00,WeatherDisplay:10.37,2013-01-18 20:21:00,
2013-01-18 14:26:00,41.0,30.5,29.78,WSW,255,10.0,10.0,66,0.00,CLR,,0.00,WeatherDisplay:10.37,2013-01-18 20:26:00,
2013-01-18 14:31:00,41.1,30.6,29.78,West,265,6.9,6.9,66,0.00,CLR,,0.00,WeatherDisplay:10.37,2013-01-18 20:31:00,
2013-01-18 14:36:00,41.1,29.5,29.79,WNW,290,11.5,11.5,63,0.00,CLR,,0.00,WeatherDisplay:10.37,2013-01-18 20:36:00,
2013-01-18 14:41:00,40.8,28.4,29.79,WNW,295,11.5,11.5,61,0.00,CLR,,0.00,WeatherDisplay:10.37,2013-01-18 20:41:00,
2013-01-18 14:46:00,40.6,28.6,29.79,WSW,244,11.5,11.5,62,0.00,CLR,,0.00,WeatherDisplay:10.37,2013-01-18 20:46:00,
2013-01-18 14:51:00,40.5,28.5,29.78,SW,217,15.0,15.0,62,0.00,CLR,,0.00,WeatherDisplay:10.37,2013-01-18 20:51:00,
2013-01-18 14:56:00,40.5,28.5,29.78,WNW,284,15.0,15.0,62,0.00,CLR,,0.00,WeatherDisplay:10.37,2013-01-18 20:56:00,
2013-01-18 15:01:00,40.5,28.5,29.78,West,267,10.4,10.4,62,0.00,CLR,,0.00,WeatherDisplay:10.37,2013-01-18 21:01:00,
2013-01-18 15:06:00,40.6,28.6,29.78,WSW,246,14.0,14.0,62,0.00,CLR,,0.00,WeatherDisplay:10.37,2013-01-18 21:06:00,
2013-01-18 15:11:00,40.4,28.8,29.79,WNW,296,10.4,10.4,63,0.00,CLR,,0.00,WeatherDisplay:10.37,2013-01-18 21:11:00,
2013-01-18 15:16:00,40.5,28.9,29.78,WSW,253,9.2,9.2,63,0.00,CLR,,0.00,WeatherDisplay:10.37,2013-01-18 21:16:00,
2013-01-18 15:21:00,40.5,28.9,29.79,West,261,11.5,11.5,63,0.00,CLR,,0.00,WeatherDisplay:10.37,2013-01-18 21:21:00,
2013-01-18 15:26:00,40.3,28.7,29.79,West,267,10.4,10.4,63,0.00,CLR,,0.00,WeatherDisplay:10.37,2013-01-18 21:26:00,
2013-01-18 15:31:00,40.0,28.8,29.79,WSW,242,10.4,10.4,64,0.00,CLR,,0.00,WeatherDisplay:10.37,2013-01-18 21:31:00,
2013-01-18 15:36:00,39.7,28.5,29.78,West,271,12.7,12.7,64,0.00,CLR,,0.00,WeatherDisplay:10.37,2013-01-18 21:36:00,
2013-01-18 15:41:00,39.6,28.8,29.79,West,260,11.5,11.5,65,0.00,CLR,,0.00,WeatherDisplay:10.37,2013-01-18 21:41:00,
2013-01-18 15:46:00,39.4,28.6,29.79,West,265,13.8,13.8,65,0.00,CLR,,0.00,WeatherDisplay:10.37,2013-01-18 21:46:00,
2013-01-18 15:51:00,39.5,28.7,29.79,WSW,239,11.5,11.5,65,0.00,CLR,,0.00,WeatherDisplay:10.37,2013-01-18 21:51:00,
2013-01-18 15:56:00,39.3,28.5,29.79,WNW,296,12.7,12.7,65,0.00,CLR,,0.00,WeatherDisplay:10.37,2013-01-18 21:56:00,
2013-01-18 16:01:00,39.1,28.7,29.79,West,263,4.6,6.1,66,0.00,CLR,,0.00,WeatherDisplay:10.37,2013-01-18 22:01:00,
2013-01-18 16:06:00,38.8,28.4,29.80,SSW,194,9.2,9.2,66,0.00,CLR,,0.00,WeatherDisplay:10.37,2013-01-18 22:06:00,
2013-01-18 16:11:00,38.6,28.6,29.80,WSW,248,10.4,10.4,67,0.00,CLR,,0.00,WeatherDisplay:10.37,2013-01-18 22:11:00,
2013-01-18 16:16:00,38.8,28.8,29.80,West,263,9.2,9.2,67,0.00,CLR,,0.00,WeatherDisplay:10.37,2013-01-18 22:16:00,
2013-01-18 16:21:00,38.8,28.8,29.80,WSW,255,13.8,13.8,67,0.00,CLR,,0.00,WeatherDisplay:10.37,2013-01-18 22:21:00,
2013-01-18 16:26:00,38.8,28.8,29.80,WNW,285,11.5,11.5,67,0.00,CLR,,0.00,WeatherDisplay:10.37,2013-01-18 22:26:00,
2013-01-18 16:31:00,38.6,28.6,29.80,WSW,242,13.8,13.8,67,0.00,CLR,,0.00,WeatherDisplay:10.37,2013-01-18 22:31:00,
2013-01-18 16:36:00,38.5,28.5,29.80,SW,234,6.9,6.9,67,0.00,CLR,,0.00,WeatherDisplay:10.37,2013-01-18 22:36:00,
2013-01-18 16:41:00,38.3,28.7,29.80,WSW,244,9.2,9.2,68,0.00,CLR,,0.00,WeatherDisplay:10.37,2013-01-18 22:41:00,
2013-01-18 16:46:00,38.0,28.4,29.80,WSW,247,11.5,11.5,68,0.00,CLR,,0.00,WeatherDisplay:10.37,2013-01-18 22:46:00,
2013-01-18 16:51:00,37.7,28.4,29.80,WSW,254,12.7,12.7,69,0.00,CLR,,0.00,WeatherDisplay:10.37,2013-01-18 22:51:00,
2013-01-18 16:56:00,37.5,28.2,29.80,West,265,9.2,9.2,69,0.00,CLR,,0.00,WeatherDisplay:10.37,2013-01-18 22:56:00,
2013-01-18 17:01:00,37.1,28.2,29.80,WSW,240,10.4,10.4,70,0.00,CLR,,0.00,WeatherDisplay:10.37,2013-01-18 23:01:00,
2013-01-18 17:06:00,36.8,28.3,29.81,West,263,11.5,11.5,71,0.00,CLR,,0.00,WeatherDisplay:10.37,2013-01-18 23:06:00,
2013-01-18 17:11:00,36.6,28.1,29.80,WSW,257,13.8,13.8,71,0.00,CLR,,0.00,WeatherDisplay:10.37,2013-01-18 23:11:00,
2013-01-18 17:16:00,36.4,28.2,29.81,WSW,249,10.4,10.4,72,0.00,CLR,,0.00,WeatherDisplay:10.37,2013-01-18 23:16:00,
2013-01-18 17:21:00,36.1,27.9,29.80,WSW,242,9.2,9.2,72,0.00,CLR,,0.00,WeatherDisplay:10.37,2013-01-18 23:21:00,
2013-01-18 17:26:00,35.9,28.1,29.81,WSW,242,11.5,11.5,73,0.00,CLR,,0.00,WeatherDisplay:10.37,2013-01-18 23:26:00,
2013-01-18 17:31:00,35.7,28.2,29.80,West,259,6.9,6.9,74,0.00,CLR,,0.00,WeatherDisplay:10.37,2013-01-18 23:31:00,
2013-01-18 17:36:00,35.5,28.0,29.81,WSW,247,5.8,5.8,74,0.00,CLR,,0.00,WeatherDisplay:10.37,2013-01-18 23:36:00,
2013-01-18 17:41:00,35.3,28.2,29.81,WSW,244,10.4,10.4,75,0.00,CLR,,0.00,WeatherDisplay:10.37,2013-01-18 23:41:00,
2013-01-18 17:46:00,35.3,28.2,29.81,West,265,11.5,11.5,75,0.00,CLR,,0.00,WeatherDisplay:10.37,2013-01-18 23:46:00,
2013-01-18 17:51:00,35.2,28.1,29.82,West,260,10.4,10.4,75,0.00,CLR,,0.00,WeatherDisplay:10.37,2013-01-18 23:51:00,
2013-01-18 17:57:00,35.1,28.0,29.82,WSW,249,6.9,6.9,75,0.00,CLR,,0.00,WeatherDisplay:10.37,2013-01-18 23:57:00,
2013-01-18 18:02:00,35.0,28.2,29.82,West,277,10.4,10.4,76,0.00,CLR,,0.00,WeatherDisplay:10.37,2013-01-19 00:02:00,
2013-01-18 18:07:00,34.9,28.1,29.82,WSW,247,10.4,10.4,76,0.00,CLR,,0.00,WeatherDisplay:10.37,2013-01-19 00:07:00,
2013-01-18 18:12:00,34.7,27.9,29.82,WSW,240,6.9,6.9,76,0.00,CLR,,0.00,WeatherDisplay:10.37,2013-01-19 00:12:00,
2013-01-18 18:17:00,34.6,28.1,29.82,WNW,293,5.8,5.8,77,0.00,CLR,,0.00,WeatherDisplay:10.37,2013-01-19 00:17:00,
2013-01-18 18:22:00,34.4,27.9,29.82,WSW,248,10.4,10.4,77,0.00,CLR,,0.00,WeatherDisplay:10.37,2013-01-19 00:22:00,
2013-01-18 18:27:00,34.4,27.9,29.82,West,275,9.2,9.2,77,0.00,CLR,,0.00,WeatherDisplay:10.37,2013-01-19 00:27:00,
2013-01-18 18:32:00,34.4,27.9,29.82,WSW,254,9.2,9.2,77,0.00,CLR,,0.00,WeatherDisplay:10.37,2013-01-19 00:32:00,
2013-01-18 18:37:00,34.4,27.9,29.83,West,272,11.5,11.5,77,0.00,CLR,,0.00,WeatherDisplay:10.37,2013-01-19 00:37:00,
2013-01-18 18:42:00,34.4,27.9,29.83,West,261,9.2,9.2,77,0.00,CLR,,0.00,WeatherDisplay:10.37,2013-01-19 00:42:00,
2013-01-18 18:47:00,34.4,27.9,29.82,West,279,11.5,11.5,77,0.00,CLR,,0.00,WeatherDisplay:10.37,2013-01-19 00:47:00,
2013-01-18 18:52:00,34.4,27.9,29.83,SW,232,6.9,6.9,77,0.00,CLR,,0.00,WeatherDisplay:10.37,2013-01-19 00:52:00,
2013-01-18 18:57:00,34.4,27.9,29.83,WSW,254,9.2,9.2,77,0.00,CLR,,0.00,WeatherDisplay:10.37,2013-01-19 00:57:00,
2013-01-18 19:02:00,34.4,27.9,29.83,WSW,249,11.5,11.5,77,0.00,CLR,,0.00,WeatherDisplay:10.37,2013-01-19 01:02:00,
2013-01-18 19:07:00,34.3,27.8,29.83,WSW,246,10.4,10.4,77,0.00,CLR,,0.00,WeatherDisplay:10.37,2013-01-19 01:07:00,
2013-01-18 19:12:00,34.2,27.7,29.83,WSW,254,9.2,9.2,77,0.00,CLR,,0.00,WeatherDisplay:10.37,2013-01-19 01:12:00,
2013-01-18 19:17:00,34.0,27.5,29.83,WSW,251,5.8,5.8,77,0.00,CLR,,0.00,WeatherDisplay:10.37,2013-01-19 01:17:00,
2013-01-18 19:22:00,33.7,27.6,29.83,SW,231,6.9,6.9,78,0.00,CLR,,0.00,WeatherDisplay:10.37,2013-01-19 01:22:00,
2013-01-18 19:27:00,33.5,27.7,29.83,WSW,240,11.5,11.5,79,0.00,CLR,,0.00,WeatherDisplay:10.37,2013-01-19 01:27:00,
2013-01-18 19:32:00,33.4,27.6,29.83,SW,236,10.4,10.4,79,0.00,CLR,,0.00,WeatherDisplay:10.37,2013-01-19 01:32:00,
2013-01-18 19:37:00,33.4,27.6,29.83,WSW,244,5.0,5.0,79,0.00,CLR,,0.00,WeatherDisplay:10.37,2013-01-19 01:37:00,
2013-01-18 19:42:00,33.3,27.5,29.83,WSW,240,5.0,5.8,79,0.00,CLR,,0.00,WeatherDisplay:10.37,2013-01-19 01:42:00,
2013-01-18 19:47:00,33.4,27.6,29.83,West,264,10.4,10.4,79,0.00,CLR,,0.00,WeatherDisplay:10.37,2013-01-19 01:47:00,
2013-01-18 19:52:00,33.4,27.6,29.83,WSW,244,10.4,10.4,79,0.00,CLR,,0.00,WeatherDisplay:10.37,2013-01-19 01:52:00,
2013-01-18 19:57:00,33.3,27.5,29.83,WSW,239,5.8,5.8,79,0.00,CLR,,0.00,WeatherDisplay:10.37,2013-01-19 01:57:00,
2013-01-18 20:03:00,33.2,27.4,29.83,West,277,6.9,6.9,79,0.00,CLR,,0.00,WeatherDisplay:10.37,2013-01-19 02:03:00,
2013-01-18 20:08:00,33.1,27.3,29.83,WSW,247,10.4,10.4,79,0.00,CLR,,0.00,WeatherDisplay:10.37,2013-01-19 02:08:00,
2013-01-18 20:13:00,33.2,27.4,29.84,WSW,245,6.9,6.9,79,0.00,CLR,,0.00,WeatherDisplay:10.37,2013-01-19 02:13:00,
2013-01-18 20:18:00,33.1,27.3,29.83,WSW,240,5.8,5.8,79,0.00,CLR,,0.00,WeatherDisplay:10.37,2013-01-19 02:18:00,
2013-01-18 20:23:00,33.0,27.5,29.83,WNW,287,10.4,10.4,80,0.00,CLR,,0.00,WeatherDisplay:10.37,2013-01-19 02:23:00,
2013-01-18 20:28:00,33.0,27.2,29.83,WSW,253,11.5,11.5,79,0.00,CLR,,0.00,WeatherDisplay:10.37,2013-01-19 02:28:00,
2013-01-18 20:33:00,33.0,27.5,29.83,WSW,238,5.8,5.8,80,0.00,CLR,,0.00,WeatherDisplay:10.37,2013-01-19 02:33:00,
2013-01-18 20:38:00,32.9,27.4,29.83,West,265,11.5,11.5,80,0.00,CLR,,0.00,WeatherDisplay:10.37,2013-01-19 02:38:00,
2013-01-18 20:43:00,32.8,27.3,29.84,WSW,239,6.9,6.9,80,0.00,CLR,,0.00,WeatherDisplay:10.37,2013-01-19 02:43:00,
2013-01-18 20:48:00,32.7,27.2,29.83,WSW,244,5.8,5.8,80,0.00,CLR,,0.00,WeatherDisplay:10.37,2013-01-19 02:48:00,
2013-01-18 20:53:00,32.5,27.0,29.83,SW,221,4.6,4.6,80,0.00,CLR,,0.00,WeatherDisplay:10.37,2013-01-19 02:53:00,
2013-01-18 20:58:00,32.3,27.1,29.83,WSW,238,5.8,5.8,81,0.00,CLR,,0.00,WeatherDisplay:10.37,2013-01-19 02:58:00,
2013-01-18 21:03:00,32.2,27.0,29.83,SW,218,6.9,6.9,81,0.00,CLR,,0.00,WeatherDisplay:10.37,2013-01-19 03:03:00,
2013-01-18 21:08:00,32.2,27.0,29.83,SW,234,6.9,6.9,81,0.00,CLR,,0.00,WeatherDisplay:10.37,2013-01-19 03:08:00,
2013-01-18 21:13:00,32.2,27.0,29.83,WSW,256,5.8,5.8,81,0.00,CLR,,0.00,WeatherDisplay:10.37,2013-01-19 03:13:00,
2013-01-18 21:18:00,32.3,27.1,29.83,SW,236,6.9,6.9,81,0.00,CLR,,0.00,WeatherDisplay:10.37,2013-01-19 03:18:00,
2013-01-18 21:23:00,32.4,27.5,29.83,WSW,246,10.4,10.4,82,0.00,CLR,,0.00,WeatherDisplay:10.37,2013-01-19 03:23:00,
2013-01-18 21:28:00,32.6,27.4,29.83,SSW,196,5.8,5.8,81,0.00,CLR,,0.00,WeatherDisplay:10.37,2013-01-19 03:28:00,
2013-01-18 21:33:00,32.7,27.5,29.83,SW,222,5.8,5.8,81,0.00,CLR,,0.00,WeatherDisplay:10.37,2013-01-19 03:33:00,
2013-01-18 21:38:00,32.7,27.5,29.83,West,269,6.9,6.9,81,0.00,CLR,,0.00,WeatherDisplay:10.37,2013-01-19 03:38:00,
2013-01-18 21:43:00,32.9,27.7,29.83,West,275,3.5,3.5,81,0.00,CLR,,0.00,WeatherDisplay:10.37,2013-01-19 03:43:00,
2013-01-18 21:48:00,33.1,27.6,29.83,SW,236,4.6,4.6,80,0.00,CLR,,0.00,WeatherDisplay:10.37,2013-01-19 03:48:00,
2013-01-18 21:53:00,33.2,27.7,29.83,SW,235,0.0,0.0,80,0.00,CLR,,0.00,WeatherDisplay:10.37,2013-01-19 03:53:00,
2013-01-18 21:58:00,33.0,27.2,29.83,West,261,3.5,3.5,79,0.00,CLR,,0.00,WeatherDisplay:10.37,2013-01-19 03:58:00,
2013-01-18 22:03:00,32.8,27.3,29.82,West,277,4.6,4.6,80,0.00,CLR,,0.00,WeatherDisplay:10.37,2013-01-19 04:03:00,
2013-01-18 22:08:00,32.7,27.2,29.82,SW,235,4.6,4.6,80,0.00,CLR,,0.00,WeatherDisplay:10.37,2013-01-19 04:08:00,
2013-01-18 22:13:00,32.5,27.0,29.82,SW,235,0.0,0.0,80,0.00,CLR,,0.00,WeatherDisplay:10.37,2013-01-19 04:13:00,
2013-01-18 22:18:00,32.2,27.0,29.82,SSW,207,0.0,0.0,81,0.00,CLR,,0.00,WeatherDisplay:10.37,2013-01-19 04:18:00,
2013-01-18 22:23:00,32.0,26.8,29.82,SSW,207,0.0,0.0,81,0.00,CLR,,0.00,WeatherDisplay:10.37,2013-01-19 04:23:00,
2013-01-18 22:28:00,31.9,27.0,29.82,SSW,207,3.5,0.0,82,0.00,CLR,,0.00,WeatherDisplay:10.37,2013-01-19 04:28:00,
2013-01-18 22:33:00,31.8,26.9,29.82,SSW,207,0.0,0.0,82,0.00,CLR,,0.00,WeatherDisplay:10.37,2013-01-19 04:33:00,
2013-01-18 22:38:00,31.8,26.9,29.81,SSW,207,0.0,0.0,82,0.00,CLR,,0.00,WeatherDisplay:10.37,2013-01-19 04:38:00,
2013-01-18 22:43:00,31.6,26.7,29.81,SSW,202,3.5,3.5,82,0.00,CLR,,0.00,WeatherDisplay:10.37,2013-01-19 04:43:00,
2013-01-18 22:48:00,31.5,26.6,29.81,SSW,203,0.0,0.0,82,0.00,CLR,,0.00,WeatherDisplay:10.37,2013-01-19 04:48:00,
2013-01-18 22:53:00,31.4,26.8,29.81,SW,236,3.5,3.5,83,0.00,CLR,,0.00,WeatherDisplay:10.37,2013-01-19 04:53:00,
2013-01-18 22:58:00,31.2,26.6,29.82,SW,236,0.0,0.0,83,0.00,CLR,,0.00,WeatherDisplay:10.37,2013-01-19 04:58:00,
2013-01-18 23:01:00,31.2,26.6,29.82,SW,236,0.0,0.0,83,0.00,CLR,,0.00,WeatherDisplay:10.37,2013-01-19 05:01:00,
2013-01-18 23:03:00,31.1,26.5,29.82,SW,236,0.0,0.0,83,0.00,CLR,,0.00,WeatherDisplay:10.37,2013-01-19 05:03:00,
2013-01-18 23:08:00,30.8,26.2,29.82,SW,236,0.0,0.0,83,0.00,CLR,,0.00,WeatherDisplay:10.37,2013-01-19 05:08:00,
2013-01-18 23:13:00,30.6,26.3,29.81,SW,236,0.0,0.0,84,0.00,CLR,,0.00,WeatherDisplay:10.37,2013-01-19 05:13:00,
2013-01-18 23:18:00,30.5,26.2,29.82,SW,236,0.0,0.0,84,0.00,CLR,,0.00,WeatherDisplay:10.37,2013-01-19 05:18:00,
2013-01-18 23:23:00,30.3,26.3,29.82,SW,236,0.0,0.0,85,0.00,CLR,,0.00,WeatherDisplay:10.37,2013-01-19 05:23:00,
2013-01-18 23:28:00,30.2,26.2,29.82,SW,236,0.0,0.0,85,0.00,CLR,,0.00,WeatherDisplay:10.37,2013-01-19 05:28:00,
2013-01-18 23:33:00,30.1,26.1,29.83,SW,236,0.0,0.0,85,0.00,CLR,,0.00,WeatherDisplay:10.37,2013-01-19 05:33:00,
2013-01-18 23:38:00,30.1,26.4,29.83,SW,236,0.0,0.0,86,0.00,CLR,,0.00,WeatherDisplay:10.37,2013-01-19 05:38:00,
2013-01-18 23:43:00,30.1,26.4,29.83,SW,236,0.0,0.0,86,0.00,CLR,,0.00,WeatherDisplay:10.37,2013-01-19 05:43:00,
2013-01-18 23:48:00,30.0,26.3,29.83,SW,236,0.0,0.0,86,0.00,CLR,,0.00,WeatherDisplay:10.37,2013-01-19 05:48:00,
2013-01-18 23:53:00,30.0,26.3,29.83,SW,236,0.0,0.0,86,0.00,CLR,,0.00,WeatherDisplay:10.37,2013-01-19 05:53:00,
2013-01-18 23:58:00,30.1,26.4,29.83,SW,236,3.5,3.5,86,0.00,CLR,,0.00,WeatherDisplay:10.37,2013-01-19 05:58:00,